Theta_e
310 311 311 311 311 313 315 316 317 318 318 318 318 317 318 317 317 318 314 313 313 312 312 313 312 312 312 312 313 314 315 316 318 318 319 319 320 320 320 319 318 319 318 318 318 318 317 317 318 318 318 317 318 318 318 318 318 319 320 320 320 320 318 316 313 313 317 319 319 318 318 317 316 316 316 317 316 315 310 312 314 314 314 314 314
309 309 309 311 310 311 312 313 316 317 317 317 316 317 316 315 315 312 312 313 310 311 310 310 309 309 309 310 310 311 311 313 313 314 316 317 317 319 319 318 317 318 317 317 317 318 317 317 317 317 317 317 317 317 318 317 317 318 319 319 319 319 320 317 316 314 313 317 315 317 313 316 316 317 316 316 316 316 315 314 315 315 315 314 313
308 308 308 308 309 310 311 311 312 313 314 314 314 315 314 312 309 310 310 308 305 308 308 307 307 306 306 307 307 307 309 310 310 311 313 315 315 316 317 317 317 316 316 316 317 316 316 316 316 317 317 316 316 317 317 317 317 317 317 317 317 318 319 318 317 314 314 314 316 313 313 310 314 314 315 316 316 316 316 316 315 315 314 315 315
307 307 307 307 308 308 308 308 308 309 311 312 312 311 310 307 304 307 307 304 305 303 302 303 303 303 304 302 302 305 305 305 306 307 311 312 312 314 314 315 316 316 316 316 315 315 315 315 316 316 316 315 316 315 317 317 317 317 317 317 317 317 317 317 318 317 315 313 315 309 313 308 310 314 316 315 314 312 313 314 314 315 316 316 316
302 303 304 305 305 306 306 306 307 307 309 309 308 306 302 302 302 304 302 302 301 301 300 299 300 301 304 302 302 301 302 303 304 305 306 306 309 311 312 312 313 314 314 315 310 314 314 315 316 316 316 314 314 314 314 313 314 314 314 315 315 316 316 317 316 316 315 313 314 312 306 307 305 308 310 308 305 302 304 308 313 315 315 316 316
301 302 302 303 303 302 304 302 304 306 306 304 303 301 300 300 300 299 301 302 299 298 300 297 300 299 298 299 299 300 300 300 300 301 302 302 303 304 304 306 308 310 311 312 313 313 315 316 317 317 316 315 315 315 315 314 313 312 312 312 313 314 314 314 314 314 313 313 313 313 307 307 306 301 298 303 306 306 306 307 307 307 307 309 311
299 300 300 300 302 300 300 301 303 301 300 299 295 296 297 295 296 298 294 297 298 296 293 295 292 295 295 296 297 297 298 298 299 299 301 304 304 303 303 303 303 304 305 306 309 312 314 315 316 316 316 316 315 313 312 312 313 312 311 312 313 312 312 312 311 311 312 312 312 311 310 307 306 307 300 303 305 306 306 306 306 304 304 306 306
298 298 297 297 299 300 298 297 295 297 294 292 293 292 291 290 292 290 289 294 293 292 292 294 287 289 290 291 293 293 293 296 298 300 302 304 303 302 304 304 303 302 302 301 302 305 307 309 311 313 314 315 315 314 312 311 310 310 310 310 310 309 309 310 309 308 308 308 309 309 308 306 301 300 298 299 301 301 302 305 305 303 301 303 303
297 297 296 297 299 299 295 291 292 292 290 291 291 292 292 289 288 289 288 288 289 286 289 289 288 289 287 288 290 291 294 298 300 298 299 301 302 304 305 304 301 301 301 299 300 302 305 306 308 308 303 294 292 296 300 302 311 309 307 308 309 308 308 308 308 308 307 307 307 306 305 306 305 302 302 301 302 305 303 301 304 305 303 304 304
297 296 297 298 297 293 291 291 291 289 290 291 290 289 289 289 289 289 288 286 285 285 287 289 291 292 293 292 293 296 296 300 292 291 294 296 296 298 300 299 299 300 299 299 299 300 302 303 306 296 295 297 296 296 297 296 295 302 307 306 305 306 306 306 306 306 306 306 307 305 304 304 304 301 302 303 303 301 301 300 302 305 303 303 304
296 296 298 298 295 291 290 292 290 291 292 289 289 290 290 288 288 288 286 285 287 288 290 292 291 293 293 293 293 297 299 294 291 295 294 294 293 296 299 301 302 297 296 298 298 297 298 299 301 299 297 297 299 296 297 294 294 295 295 294 295 303 306 307 305 303 304 305 304 302 302 303 304 301 301 304 299 299 301 300 302 302 301 301 301
298 297 298 296 293 293 292 292 291 291 289 291 290 289 288 288 288 287 285 287 287 290 291 291 291 292 294 293 293 294 292 290 293 293 293 294 292 292 295 297 299 299 297 297 296 295 296 296 296 301 299 295 298 299 296 294 294 295 295 296 296 294 295 300 303 303 303 304 303 301 300 301 301 299 297 297 297 297 298 298 298 299 299 299 299
298 298 297 295 294 293 291 292 291 290 290 290 289 288 288 288 288 287 288 288 289 291 292 292 292 291 293 293 292 290 289 290 292 292 292 293 293 292 292 294 296 296 295 295 294 295 294 294 294 295 297 289 290 293 295 296 294 294 295 294 294 295 296 295 295 299 301 298 299 298 299 296 296 296 294 294 295 295 295 295 296 296 297 297 298
297 298 296 295 294 292 291 291 291 291 289 288 288 288 289 290 288 288 288 288 291 291 291 291 291 292 292 291 289 289 288 290 291 292 292 292 293 293 294 296 297 295 294 294 294 292 293 293 293 292 291 290 290 290 291 290 291 293 294 295 295 293 291 292 292 291 293 297 295 295 295 294 293 293 293 295 295 293 293 293 294 294 294 295 296
297 297 296 295 292 291 291 291 292 290 289 289 289 289 289 288 288 287 289 291 292 291 291 291 292 291 291 290 288 288 289 290 291 291 292 292 292 292 294 296 293 292 292 291 290 290 290 291 290 289 289 289 289 290 289 290 290 290 289 291 291 291 290 290 290 289 290 292 293 292 293 293 293 292 294 297 296 296 295 293 293 293 293 292 290
297 296 294 292 292 292 292 292 292 290 289 289 289 289 288 288 288 288 289 290 290 290 290 291 291 291 290 289 288 287 288 290 290 290 291 291 291 291 292 292 291 291 290 290 289 289 289 289 289 289 288 288 289 291 289 287 289 288 288 288 289 289 289 289 290 291 291 291 291 291 290 291 293 293 294 294 294 294 291 290 289 288 289 290 290
296 295 294 293 292 292 292 292 291 290 290 290 290 289 288 287 288 288 290 289 290 290 290 290 290 290 289 289 288 287 287 288 289 289 290 291 290 288 289 291 291 290 289 288 288 287 288 288 288 288 287 287 289 291 291 289 288 288 287 286 285 285 286 288 289 290 291 291 291 292 292 292 292 292 292 292 289 289 286 287 286 286 287 288 287
296 295 295 294 292 292 292 292 292 290 290 290 290 289 287 287 288 288 290 289 289 289 290 289 289 289 289 288 287 287 286 286 288 289 290 290 289 288 289 290 289 289 288 287 287 287 286 285 287 287 287 288 290 291 290 287 287 287 287 285 284 285 286 287 287 288 289 289 289 289 289 289 289 289 290 290 290 289 287 286 286 287 287 286 286
296 295 295 293 292 291 291 291 291 290 290 290 289 288 288 288 288 288 288 289 289 289 289 289 288 288 288 287 285 285 284 284 287 289 290 290 288 287 289 289 288 288 288 287 287 286 286 286 286 287 287 289 291 290 290 288 287 287 286 286 285 285 285 285 284 283 284 286 286 286 286 286 285 285 285 287 287 285 286 287 286 286 286 286 286
296 296 294 292 291 290 290 290 290 290 290 289 288 288 287 287 287 288 288 289 288 288 288 288 287 286 285 284 284 282 282 282 284 289 288 289 289 288 288 289 288 287 287 287 286 286 286 286 286 288 289 289 290 290 290 289 287 286 286 285 285 285 287 284 283 282 282 282 282 282 282 282 282 282 282 283 283 282 284 285 285 286 286 285 285
295 292 291 290 290 289 289 290 290 289 289 288 287 286 286 287 287 287 287 288 288 287 287 287 286 284 283 283 282 280 281 281 283 289 288 288 289 288 287 287 287 287 287 286 286 285 284 285 285 288 289 289 289 289 289 289 288 286 286 285 285 286 286 283 283 283 282 280 280 280 280 280 281 281 281 282 282 282 282 283 283 284 285 285 285
291 290 290 290 289 288 288 288 288 288 286 286 286 286 286 287 287 287 288 288 287 286 285 285 284 283 281 280 280 280 280 281 281 286 288 288 289 289 286 286 287 287 286 285 285 284 284 285 286 288 289 289 289 289 289 289 289 283 285 289 290 289 282 282 280 280 280 278 277 277 278 279 279 279 281 281 282 282 282 282 282 282 282 284 284
290 289 289 288 287 287 287 287 287 287 286 286 286 286 286 286 286 287 287 287 286 285 284 283 282 281 280 279 279 279 280 280 283 281 286 289 289 289 288 287 289 286 285 284 284 284 285 285 286 286 288 288 289 289 290 289 287 286 290 289 288 287 283 278 279 277 276 276 277 277 277 279 279 280 279 280 281 281 281 281 281 281 282 282 282
288 288 287 287 286 286 285 285 285 285 285 285 286 285 284 285 286 286 287 287 286 283 282 281 280 280 279 280 279 279 278 278 281 283 282 287 289 289 289 288 288 284 284 284 285 285 286 286 285 286 287 288 289 289 288 287 286 288 287 286 285 283 279 278 277 276 278 277 277 277 277 278 278 279 279 280 280 281 281 281 282 281 281 282 282
287 287 286 286 285 284 284 284 284 283 284 285 285 284 284 285 284 286 286 286 285 283 281 281 280 280 280 279 279 278 278 277 278 280 282 284 287 288 288 289 288 287 284 284 285 285 285 286 285 286 287 287 287 286 285 286 286 286 285 284 281 278 277 277 276 276 278 278 277 276 277 278 280 280 281 280 280 280 278 281 283 283 284 284 284
286 286 285 284 283 283 283 281 281 282 283 284 285 285 284 284 284 285 286 285 284 282 281 281 280 280 279 279 279 278 275 276 275 276 278 279 281 284 285 285 285 284 283 283 284 285 285 286 286 285 285 283 281 280 280 281 284 283 283 281 277 276 275 276 275 276 275 275 276 276 277 278 279 280 280 280 280 280 280 281 281 282 283 284 284
285 284 283 282 281 282 282 282 281 281 281 283 283 284 285 285 285 285 285 284 282 281 281 281 280 279 278 279 278 277 275 274 274 273 272 272 275 276 278 279 282 282 279 278 282 282 284 283 282 284 283 284 283 283 281 281 279 279 277 277 276 275 275 275 275 275 275 274 275 276 277 276 277 279 278 278 278 279 280 280 279 280 281 281 279
285 283 282 282 282 282 282 281 281 281 281 282 282 283 284 284 284 284 284 283 282 281 281 280 280 279 278 278 276 274 273 272 273 270 272 270 272 273 274 273 275 273 277 279 278 279 281 283 282 279 279 278 277 275 275 275 276 276 275 274 274 275 277 278 277 274 276 278 279 278 276 274 276 279 280 280 279 279 280 279 278 278 280 280 279
283 281 281 281 281 281 281 281 281 281 280 280 280 281 281 283 282 279 277 276 279 283 282 281 280 278 279 278 276 274 272 273 273 276 273 278 274 272 271 271 271 271 277 281 277 276 277 277 277 275 274 275 274 272 271 272 273 275 275 274 272 273 272 272 271 272 275 277 278 278 276 275 276 278 278 279 279 279 279 278 277 276 276 276 275
281 280 281 281 280 281 280 280 280 280 280 279 279 280 281 281 280 279 277 281 283 284 283 276 278 278 276 272 273 274 275 273 279 282 282 283 283 283 282 283 284 278 281 285 280 276 275 276 273 274 273 273 273 273 272 270 270 271 273 276 274 273 272 271 269 272 276 278 278 276 275 275 273 273 274 276 276 276 276 276 274 274 273 273 272
281 280 280 280 281 281 280 280 280 280 280 281 280 278 279 281 283 283 282 282 283 284 283 282 282 281 278 273 275 280 280 282 282 281 282 282 283 283 283 283 283 284 285 281 278 277 274 275 273 273 274 273 274 275 275 273 273 272 273 273 274 274 273 271 271 272 273 274 275 273 272 270 269 270 271 274 273 272 271 272 272 272 273 273 273
281 280 280 280 281 280 280 281 281 281 280 281 280 279 279 278 279 282 283 283 283 283 283 283 283 282 281 280 277 276 281 281 281 280 280 281 281 282 282 283 283 284 285 285 279 275 272 272 273 273 274 274 274 273 273 273 273 273 273 273 272 272 271 270 271 271 270 271 272 270 270 269 269 270 269 269 271 269 270 269 270 272 273 273 273
281 280 280 280 280 280 280 281 281 281 280 280 279 279 279 278 277 277 279 282 283 283 283 283 283 282 282 282 281 280 280 280 280 279 279 280 281 282 282 282 282 283 284 278 275 271 268 270 272 270 271 272 272 272 272 272 272 271 270 269 269 269 268 266 267 268 270 270 270 269 269 270 270 270 269 268 269 269 270 270 270 272 272 271 272
280 280 280 280 280 280 281 281 281 280 280 280 280 280 280 279 277 277 276 276 278 280 282 282 282 282 282 281 281 280 280 279 279 278 278 279 279 281 280 278 279 280 278 272 272 269 267 267 267 269 270 272 271 270 269 270 270 269 268 267 266 265 264 264 266 268 268 268 267 268 268 268 269 267 268 268 269 269 269 269 270 270 270 270 270
279 279 279 280 281 281 281 281 280 280 280 280 280 279 279 279 278 277 276 275 274 274 275 277 280 281 280 279 280 279 279 278 278 277 277 278 279 281 279 274 270 268 268 266 268 268 268 268 269 269 270 269 269 269 267 266 267 268 267 265 262 261 263 266 267 267 266 266 266 266 267 266 267 268 268 267 267 267 267 268 268 269 269 269 269
279 279 279 280 280 280 280 280 280 280 280 279 279 279 279 278 278 277 277 276 275 274 274 275 276 279 279 279 279 278 278 277 277 276 276 276 277 279 273 269 268 266 266 264 265 266 268 268 268 267 267 266 266 266 266 265 263 265 265 264 263 262 263 264 266 266 267 266 265 265 264 264 265 266 267 267 267 267 266 266 267 268 269 269 269
278 279 279 279 280 281 281 280 280 280 279 279 278 278 278 278 278 277 277 276 274 274 273 272 272 273 274 274 276 277 277 276 275 275 274 274 274 270 269 269 267 264 264 264 266 267 267 266 266 265 265 264 262 261 263 262 261 263 266 265 265 264 264 264 264 265 264 263 261 260 259 261 263 265 266 265 266 266 266 266 267 268 268 269 269
279 279 278 279 279 280 280 280 279 279 278 278 278 278 278 278 278 277 276 275 274 273 272 271 272 272 272 271 274 273 272 272 271 269 268 268 263 263 264 264 264 264 263 262 262 263 264 264 264 264 263 262 260 259 259 259 260 262 263 264 265 265 266 264 264 263 263 261 260 259 261 262 264 265 266 264 264 264 265 266 266 266 267 268 267
276 276 277 277 279 279 279 278 278 278 278 278 278 278 278 277 277 276 275 274 273 272 272 271 271 270 270 269 270 271 270 267 265 263 262 261 260 260 260 261 261 261 260 260 261 261 261 261 261 260 260 260 260 259 259 259 260 261 262 262 261 260 260 258 260 259 260 259 259 259 259 261 264 264 265 264 264 264 264 265 265 266 265 266 266
275 275 276 277 277 278 278 278 278 278 278 278 278 278 277 277 277 276 275 274 272 272 271 270 269 268 268 267 268 268 267 264 263 262 261 261 260 259 259 260 260 261 260 260 260 260 260 259 259 259 259 258 259 259 259 260 260 260 260 261 261 261 261 260 259 259 260 260 260 260 260 261 263 263 263 263 263 263 264 264 265 266 266 266 266
275 275 275 276 276 276 276 276 277 277 277 277 277 277 277 277 277 276 276 274 273 272 271 270 269 268 268 269 270 269 266 263 262 262 261 260 259 259 259 259 260 260 259 259 259 260 260 260 259 259 259 258 259 259 259 260 260 261 261 262 261 262 261 260 259 258 259 259 260 260 260 261 261 262 261 262 265 264 264 264 264 264 264 264 265
275 274 274 274 275 275 275 275 275 275 275 275 276 276 275 275 275 275 274 273 272 270 268 268 267 268 270 271 270 268 263 261 261 261 260 259 259 258 258 258 258 258 258 259 260 260 260 260 259 259 259 259 259 259 259 260 260 261 261 261 260 260 259 258 258 258 258 257 257 258 258 260 261 261 262 265 260 260 261 261 261 262 262 263 263
274 274 274 273 274 274 274 274 274 274 274 274 274 274 274 274 274 273 272 270 269 268 267 266 267 268 268 269 267 266 262 261 261 260 260 259 259 259 258 258 257 257 257 257 258 260 260 260 259 258 258 258 258 259 259 259 259 260 261 260 260 259 257 257 257 257 258 259 259 259 256 257 259 259 260 261 259 258 257 258 259 259 261 261 262
272 272 272 272 272 272 273 273 273 273 273 272 272 272 272 272 272 271 269 268 267 267 267 266 266 266 265 266 264 263 261 261 260 260 260 260 259 259 259 259 259 259 259 258 258 258 258 258 258 258 259 258 258 259 259 259 260 262 262 261 260 259 257 257 256 257 258 258 259 258 257 258 259 259 261 261 256 256 257 258 259 259 260 260 262
271 271 271 271 271 271 271 271 271 271 271 271 271 271 271 270 270 269 268 267 266 266 266 265 265 264 263 262 262 261 261 261 261 260 260 260 259 259 259 259 259 259 259 258 258 258 258 258 258 259 259 259 259 260 260 260 260 261 261 261 260 258 256 255 256 258 258 256 256 256 257 257 257 259 260 258 258 257 258 258 260 262 260 261 262
270 270 270 270 270 270 270 270 270 270 270 270 270 269 269 269 268 267 267 266 266 265 264 264 264 263 262 262 261 261 261 260 260 260 259 259 258 258 258 258 258 258 258 258 258 258 258 258 258 258 257 257 258 258 258 259 261 262 262 261 260 258 258 256 256 256 255 254 254 254 257 258 258 260 261 257 257 258 257 258 259 260 261 262 263
269 269 269 269 269 269 269 269 269 269 269 269 268 268 267 267 266 266 265 265 264 264 263 263 262 261 261 261 260 260 260 259 259 258 258 258 258 258 258 257 257 257 257 257 257 257 257 257 256 256 257 256 255 256 256 256 257 258 259 259 259 260 260 260 258 256 255 256 255 253 255 257 259 260 259 258 257 257 258 258 259 259 260 262 262
268 268 268 268 268 268 268 268 268 268 267 267 266 266 266 265 265 264 264 264 263 263 262 262 261 261 260 260 260 260 259 258 258 258 257 257 256 257 257 257 257 256 256 256 256 256 256 255 254 255 255 255 256 255 254 254 254 255 255 255 256 259 264 264 258 255 255 256 256 257 256 256 258 260 259 257 255 257 256 257 259 260 261 262 262
268 268 268 268 268 267 267 267 267 266 266 265 265 265 264 264 264 263 263 263 262 262 262 261 261 260 260 260 259 259 259 258 257 257 256 256 255 255 256 256 256 256 256 255 255 254 254 254 255 254 254 253 254 254 254 255 255 255 256 255 259 264 265 265 261 257 260 258 257 255 255 256 258 259 259 258 257 257 257 257 258 260 260 261 261
266 266 266 266 266 266 266 266 266 265 265 264 264 264 263 263 262 262 261 261 261 261 260 260 260 259 259 258 258 258 257 257 256 256 255 255 255 254 255 255 254 254 254 253 253 253 253 253 253 253 254 253 253 253 253 254 254 255 254 256 263 264 265 265 264 263 259 257 258 257 257 256 256 258 258 257 257 257 256 258 259 260 259 258 259
265 265 265 265 265 265 265 265 265 264 264 263 263 262 262 262 261 261 261 260 260 259 259 259 259 259 259 258 258 257 256 256 255 255 255 254 253 254 253 253 253 252 252 253 253 253 252 253 253 253 253 254 254 254 254 254 253 254 260 263 263 264 265 264 262 263 263 262 258 258 257 258 257 256 257 257 256 257 259 260 259 258 257 258 258
Wind_Speed
8 9 7 8 8 9 10 9 10 9 9 10 11 11 10 9 9 9 6 7 7 7 7 7 7 7 6 6 7 7 7 7 7 7 7 8 9 10 9 8 10 10 9 10 9 9 10 10 10 10 8 9 8 8 8 8 8 9 9 9 10 9 9 10 13 15 10 6 9 7 6 6 5 5 9 9 6 5 8 7 6 5 6 6 7
7 7 7 8 9 9 9 8 10 9 10 10 10 10 9 9 9 6 7 8 7 7 7 6 5 5 5 5 5 5 5 6 5 5 7 8 9 8 8 8 9 10 8 10 9 8 8 10 10 9 8 10 9 9 9 8 8 9 9 9 10 10 9 10 11 12 16 6 6 5 4 6 9 6 9 8 7 7 8 6 6 7 6 6 7
8 7 7 7 8 8 7 8 8 9 10 9 10 10 10 9 7 8 8 7 5 6 6 6 5 5 5 5 4 4 5 5 5 6 7 8 8 8 8 8 9 10 10 10 10 8 8 9 10 9 7 8 9 9 8 9 8 9 10 8 10 10 9 10 11 13 15 14 7 7 5 5 7 5 6 7 8 7 8 8 7 4 4 6 7
8 8 8 9 8 8 8 8 7 8 9 10 11 10 9 7 6 7 6 5 6 4 4 4 4 4 4 4 4 4 4 4 4 4 6 6 7 7 7 8 8 9 9 9 8 8 9 9 9 8 8 9 9 8 8 8 9 9 10 10 10 11 10 9 11 12 12 14 10 5 5 3 6 6 5 7 8 6 6 6 4 6 7 6 7
5 5 6 8 9 9 9 9 10 11 11 10 11 9 7 7 6 6 5 5 4 5 3 3 4 4 5 4 3 3 3 3 3 3 3 4 5 5 6 6 7 7 8 8 8 8 9 10 9 8 8 9 8 7 7 8 8 8 9 9 9 10 9 10 11 10 11 13 13 6 4 4 4 5 5 6 5 4 5 6 7 7 8 8 6
6 7 7 7 7 8 9 8 9 11 11 9 9 8 8 7 6 5 6 6 5 4 5 3 3 3 3 2 1 1 1 1 2 2 2 2 2 3 3 4 4 5 5 6 6 6 8 8 8 8 8 9 10 9 9 10 9 9 10 9 9 9 9 9 9 10 11 12 11 11 5 5 4 4 4 5 6 5 5 6 5 5 7 9 7
6 6 7 7 7 8 8 9 10 8 8 7 5 6 7 6 7 6 5 6 6 5 4 4 2 3 2 2 1 1 1 0 0 1 1 0 0 0 1 1 1 2 2 3 3 4 5 5 6 5 7 8 8 8 8 9 9 10 8 7 7 7 8 8 7 8 10 11 10 8 6 4 4 6 4 4 4 4 5 6 7 5 6 8 8
6 6 6 6 7 9 9 7 6 7 5 4 5 5 4 4 5 5 6 5 5 4 4 4 3 3 3 2 2 1 1 1 1 1 1 1 1 1 1 0 0 1 1 2 2 2 2 2 3 3 4 4 5 6 5 7 6 7 7 7 8 7 8 7 7 7 7 7 8 9 6 5 3 2 1 1 3 4 4 6 10 7 5 5 5
6 6 6 7 9 9 6 5 4 4 4 4 4 4 4 4 4 5 4 4 4 3 4 5 4 3 3 2 1 1 1 2 2 1 1 2 2 2 2 2 1 1 1 1 1 1 1 2 2 2 4 5 6 4 4 4 4 5 5 5 7 7 7 7 7 6 6 7 8 5 5 6 4 3 5 4 5 8 4 3 7 7 4 6 6
7 6 7 9 7 5 5 5 5 5 5 5 5 4 5 5 5 5 4 4 4 4 4 3 3 3 3 1 0 0 1 2 2 4 3 2 3 3 3 3 2 2 2 2 2 1 1 1 2 3 4 5 4 5 6 7 4 3 3 3 3 5 5 5 5 5 6 8 8 6 6 7 4 3 5 4 4 4 5 4 7 8 5 6 7
7 8 10 9 6 5 5 6 5 6 6 5 5 6 6 5 5 5 5 5 5 5 5 5 4 4 3 2 2 3 2 2 2 3 3 3 1 1 2 3 3 3 3 3 3 3 3 3 3 4 4 2 1 3 5 6 6 5 4 2 1 3 4 4 3 3 4 6 5 3 4 6 4 3 4 6 2 3 4 4 5 5 6 7 8
9 9 10 7 6 7 7 6 6 6 6 7 6 6 5 6 6 6 5 5 5 5 4 4 4 4 4 3 3 3 3 2 3 3 3 2 0 1 2 2 3 2 2 2 3 3 3 3 2 2 1 1 0 0 2 3 3 4 4 4 3 5 6 5 2 2 3 3 4 3 3 4 4 3 2 3 3 5 4 4 3 4 6 6 4
8 8 7 6 8 8 7 7 7 6 7 6 6 6 6 6 6 6 7 5 5 5 5 5 4 4 5 5 4 4 3 2 2 2 2 2 2 1 2 3 2 3 2 2 2 3 3 3 3 0 2 5 3 3 2 1 1 2 4 5 5 6 6 5 5 6 4 3 5 5 1 1 3 1 0 2 2 3 3 2 2 3 4 6 5
8 9 8 8 8 7 7 7 7 7 6 6 6 6 7 8 6 5 5 5 6 6 5 6 5 6 5 5 5 4 3 2 2 2 2 2 1 1 1 1 2 1 1 1 1 1 0 0 1 3 3 3 4 4 3 3 3 2 1 2 3 7 9 10 10 7 2 2 2 3 0 0 3 1 2 2 1 2 2 3 2 3 5 6 4
9 9 10 9 6 6 7 7 8 7 7 7 7 7 7 6 6 6 7 7 7 7 7 6 6 5 5 5 5 4 3 2 3 2 2 1 1 0 1 1 2 3 3 3 3 2 2 3 3 3 3 3 4 5 4 3 2 3 4 5 5 6 6 6 5 4 3 3 1 1 1 0 1 2 2 2 1 2 2 3 4 3 5 4 4
11 9 8 8 8 8 8 9 8 7 7 7 8 8 7 8 8 6 6 5 4 4 3 4 5 6 6 6 5 4 2 3 2 2 2 1 1 1 2 3 4 3 4 4 3 3 3 3 3 3 3 3 4 7 5 2 4 4 4 3 4 4 5 3 2 2 2 1 1 2 2 2 3 3 4 4 4 4 4 4 2 2 4 5 6
11 11 11 10 10 10 10 10 9 9 9 9 9 8 8 8 6 6 7 6 6 6 6 4 5 6 6 5 6 4 3 1 2 2 1 2 2 2 3 4 4 4 4 4 4 3 3 2 3 3 2 2 3 6 6 5 4 4 3 3 3 3 3 4 4 4 5 5 6 8 8 9 8 8 8 8 5 3 2 3 4 4 5 6 5
13 12 13 12 12 11 11 11 11 10 10 11 11 8 6 5 7 7 9 8 7 6 6 5 5 5 6 5 5 5 3 1 2 1 2 5 5 4 4 5 4 4 4 3 3 3 4 5 3 2 2 1 3 4 4 4 4 3 3 3 2 2 3 3 4 5 6 7 8 8 8 8 8 8 9 9 9 6 4 2 3 2 3 2 4
15 14 14 12 10 11 11 10 10 10 11 10 9 9 9 9 6 6 5 6 6 5 6 6 5 4 5 5 5 6 3 1 1 3 6 6 4 4 5 5 5 4 4 3 2 2 2 3 4 2 1 1 3 4 4 3 3 3 3 4 3 3 2 1 2 3 4 5 5 5 6 6 5 4 4 7 8 6 4 2 2 3 2 2 3
17 15 10 10 10 10 9 10 10 11 11 9 8 8 7 7 8 8 6 6 6 6 6 6 6 5 5 5 4 4 4 1 2 6 6 7 6 4 4 6 6 5 4 4 3 3 3 2 2 2 2 3 3 4 4 5 4 3 3 4 4 2 0 1 1 4 4 4 3 4 4 3 4 4 5 5 5 3 3 2 2 1 1 2 2
13 8 9 10 10 11 10 11 12 10 9 9 8 7 7 9 8 8 8 7 7 7 7 6 6 5 4 4 4 2 2 3 2 6 7 8 7 5 4 5 5 5 4 4 3 2 1 0 1 1 3 3 4 4 5 6 5 3 3 4 2 3 2 1 2 5 4 3 3 3 4 3 4 3 4 4 4 4 3 3 1 1 1 1 2
8 8 10 12 11 11 11 9 9 9 8 8 9 8 7 7 8 9 8 8 9 8 7 7 6 5 4 3 3 2 2 3 2 4 6 8 8 6 4 4 4 6 5 4 3 1 2 1 1 1 4 4 6 6 7 7 6 2 4 6 5 3 2 2 3 4 4 4 3 3 3 4 4 3 4 3 3 4 3 3 3 2 2 3 3
9 10 10 10 10 11 10 11 10 8 9 10 10 10 8 9 8 8 9 8 9 9 8 8 7 6 5 4 3 2 2 3 4 3 5 7 8 7 5 4 9 5 6 6 5 4 3 1 1 3 2 3 5 6 5 6 4 3 7 8 8 7 5 4 5 5 4 3 4 4 4 4 5 5 5 5 5 4 4 3 3 3 3 2 3
7 8 9 9 9 8 8 9 8 8 9 9 9 10 10 10 9 8 8 9 9 9 7 8 7 7 7 5 3 2 2 2 4 4 4 5 7 6 6 7 9 5 4 4 5 5 5 3 3 1 4 6 6 7 8 7 6 9 10 9 8 6 5 6 5 3 4 4 5 5 6 4 4 5 5 5 5 5 5 4 4 3 3 3 2
9 9 9 9 9 8 7 8 8 8 8 10 10 10 11 11 10 8 9 8 8 9 9 8 9 8 7 6 5 4 2 2 2 4 5 5 6 6 6 6 8 8 5 3 4 3 3 3 1 3 7 7 8 8 7 8 10 9 9 8 6 5 5 5 5 5 5 3 3 2 3 4 3 3 5 5 5 5 4 6 5 4 3 2 2
9 9 8 8 8 9 9 7 6 7 8 7 8 9 12 12 11 10 8 8 9 9 10 9 8 7 7 6 5 4 2 2 2 2 3 3 4 6 6 6 5 5 5 4 5 5 5 5 3 7 7 6 5 4 4 5 8 9 8 6 4 4 3 5 3 5 5 2 2 2 2 3 3 4 3 4 6 7 6 7 7 7 6 5 5
8 7 8 8 7 9 10 9 8 7 7 7 6 7 8 9 9 9 9 10 9 8 9 9 8 7 7 6 5 4 3 3 2 2 2 2 2 2 3 3 4 4 3 3 4 5 6 4 4 5 6 7 6 5 5 5 6 5 5 3 3 3 3 3 3 4 3 3 3 2 1 2 2 4 4 5 5 6 6 6 6 7 7 6 3
10 9 9 8 8 9 9 10 10 8 7 8 8 7 7 7 9 10 11 12 12 10 9 9 9 9 9 7 6 5 4 3 1 2 1 2 1 2 2 2 2 1 2 2 2 2 4 5 6 5 4 5 4 4 4 4 5 5 5 4 5 5 5 5 5 4 2 2 3 3 2 2 3 2 2 4 5 5 6 6 6 7 7 7 5
7 8 8 8 7 6 7 8 8 9 8 7 6 4 6 7 6 3 1 1 4 11 12 10 8 7 8 9 9 7 4 4 3 4 4 4 3 2 2 1 1 1 1 3 3 2 4 5 5 4 3 4 4 4 4 5 4 5 4 5 5 6 5 5 4 3 1 2 4 3 2 2 3 3 3 3 4 5 6 6 6 6 6 6 6
8 9 8 8 8 8 8 8 8 9 9 11 11 9 10 10 5 4 2 5 8 6 5 5 6 8 8 3 3 6 7 6 7 7 5 4 3 3 3 1 1 1 2 4 4 3 3 5 3 5 4 4 5 3 3 3 3 5 5 4 5 5 5 4 4 4 2 2 3 3 3 2 3 4 4 3 4 5 6 6 5 5 6 6 6
8 8 8 8 10 9 9 9 8 8 9 11 11 14 11 11 14 11 8 9 10 12 12 13 12 9 10 6 4 9 10 11 10 7 6 5 3 3 2 2 3 3 3 2 3 4 3 4 2 2 2 3 3 3 2 2 2 3 4 3 3 3 4 4 4 5 4 3 4 4 3 3 3 4 4 4 3 4 5 5 5 5 6 5 5
10 9 9 8 10 9 9 9 10 9 9 9 10 11 13 13 10 11 13 12 13 14 14 14 14 13 12 12 9 7 10 11 9 8 6 5 4 2 3 5 5 4 5 6 4 3 2 3 2 2 3 3 3 3 2 2 2 2 2 2 2 3 3 3 3 2 3 3 4 4 4 4 4 4 4 3 5 4 5 5 5 5 4 4 5
10 9 9 10 9 10 10 10 10 10 11 11 9 10 11 12 13 11 9 13 14 13 13 14 15 15 15 14 14 11 10 9 9 7 5 4 4 6 9 9 8 6 5 6 5 5 3 4 4 3 4 4 4 3 3 3 3 3 3 2 2 2 2 2 2 4 4 4 4 4 4 4 4 5 5 5 5 4 4 4 4 4 4 5 5
9 10 10 11 11 10 10 10 10 10 9 9 9 10 8 10 10 10 13 10 9 10 11 12 13 15 15 15 14 13 11 10 9 7 5 4 1 4 7 6 11 10 4 6 6 6 5 5 4 5 4 4 3 3 3 3 3 3 3 3 2 2 1 1 4 4 4 4 4 3 3 4 5 4 4 4 4 4 4 5 4 4 5 4 4
8 8 12 11 9 10 9 9 9 9 9 9 9 8 9 9 11 11 11 14 13 9 7 6 8 11 10 10 12 12 11 9 8 7 6 4 2 7 8 5 3 4 5 3 5 6 7 6 6 4 4 4 3 3 3 3 4 4 4 3 3 2 3 4 4 4 4 4 4 4 4 4 4 4 4 4 4 4 4 4 4 4 4 4 4
8 8 9 10 9 9 9 9 9 10 10 9 8 8 8 9 8 7 7 8 10 10 8 5 5 8 13 11 12 11 11 10 9 8 8 7 3 6 5 3 4 3 4 3 4 4 4 4 5 4 3 3 3 3 3 3 4 5 4 4 4 4 4 4 4 4 4 4 4 4 4 4 4 4 4 4 4 4 4 4 4 4 4 4 4
9 9 9 9 9 9 8 8 8 9 8 8 8 8 8 7 7 7 8 9 8 7 8 7 6 6 5 4 8 11 12 10 10 10 10 9 8 4 4 5 5 5 4 3 4 4 5 4 4 4 4 4 3 4 4 4 4 4 4 4 4 4 4 4 5 5 4 4 4 4 4 4 4 4 4 4 4 4 4 4 4 4 5 5 5
8 9 9 9 9 10 10 9 9 11 10 8 8 8 8 8 8 8 8 8 9 8 7 7 5 7 8 6 5 6 8 9 9 8 7 8 7 4 4 5 5 6 5 3 3 5 5 3 3 4 4 4 4 4 5 4 4 5 5 4 4 5 6 6 7 5 4 5 5 5 5 5 4 4 4 4 4 3 4 4 4 3 3 5 3
6 8 10 12 10 10 10 10 10 10 9 9 8 9 8 8 8 7 6 5 7 7 7 6 6 6 5 5 5 6 7 3 3 3 3 4 4 4 4 5 5 4 4 4 4 4 5 5 4 4 4 4 5 4 5 5 5 5 5 5 5 5 6 5 5 4 5 5 5 5 6 5 4 4 4 4 3 3 3 3 3 2 2 3 3
7 7 8 11 7 8 8 8 9 9 8 9 8 8 8 8 8 8 7 6 8 8 7 7 7 6 5 5 6 5 5 5 5 4 4 4 3 3 4 4 5 5 6 5 5 5 5 5 4 5 4 3 4 4 3 5 5 5 5 5 6 5 5 4 4 5 4 4 5 5 5 5 4 4 4 4 3 2 2 2 2 2 2 2 2
7 7 7 7 8 7 7 7 7 8 8 7 8 8 8 8 7 7 8 9 9 8 6 6 5 5 4 5 7 7 6 5 4 4 3 4 4 4 3 4 5 5 5 5 5 5 5 5 4 4 4 3 3 4 4 5 5 5 6 6 5 5 5 4 4 5 5 4 4 4 4 4 4 3 3 3 4 3 2 2 2 2 2 2 1
7 7 7 7 7 7 7 6 5 6 6 6 7 7 7 7 7 7 7 8 7 7 7 6 5 5 5 9 8 9 7 5 5 5 4 4 4 3 3 3 2 3 5 5 6 6 5 5 4 4 5 4 4 3 5 5 5 5 5 5 5 5 5 5 5 4 4 4 4 5 4 3 3 3 3 4 3 3 3 2 2 2 2 2 2
8 7 7 6 6 6 6 7 7 8 7 7 6 5 6 7 7 6 8 8 8 9 8 7 6 6 6 8 8 9 6 5 5 5 5 5 4 4 4 3 3 3 3 3 3 5 5 5 5 5 4 4 4 4 5 4 5 5 6 5 5 5 5 4 4 4 5 4 5 4 3 4 4 3 2 2 3 3 2 2 2 3 3 3 2
6 6 6 6 6 6 5 6 7 6 6 7 7 6 6 6 7 9 10 8 7 8 8 7 7 6 6 6 6 6 6 5 5 5 6 5 5 5 4 4 3 3 3 3 3 4 5 5 5 4 4 3 4 3 4 4 5 5 6 6 5 4 4 4 4 4 3 4 3 3 3 3 2 3 3 3 2 2 2 2 2 2 2 3 4
6 7 8 8 7 8 6 5 6 7 7 7 8 7 6 8 9 11 12 10 8 7 8 7 6 6 6 5 5 5 5 5 6 6 5 5 5 5 4 4 4 4 4 3 3 4 4 4 4 4 5 4 4 4 4 4 4 5 5 5 5 5 4 4 3 3 4 3 2 2 1 1 2 1 1 1 1 1 1 2 2 3 3 3 3
6 7 7 8 7 6 7 7 7 9 9 10 10 9 8 9 9 10 9 7 5 6 6 7 5 5 5 5 5 5 5 5 5 5 5 5 5 4 4 4 4 4 4 4 4 4 4 4 4 4 5 4 4 4 4 4 4 5 5 4 5 5 4 4 3 4 3 3 3 2 1 1 1 1 2 1 1 1 1 2 1 2 1 2 2
8 7 6 7 8 7 6 6 8 8 9 9 9 10 10 9 9 9 8 9 9 9 7 6 5 5 4 4 4 4 4 5 6 5 5 5 4 4 4 4 4 4 4 4 3 4 4 4 4 4 4 4 5 5 5 5 5 5 5 4 4 3 3 3 3 3 3 2 2 2 1 1 0 0 2 1 1 1 1 2 1 2 2 2 2
8 7 7 7 8 8 8 8 8 7 8 8 9 9 9 6 5 5 5 5 6 5 5 5 4 4 5 4 4 4 4 5 4 5 5 5 4 4 4 4 4 4 4 4 3 3 4 4 4 4 4 4 4 4 4 4 4 4 4 3 2 2 3 5 3 3 2 2 2 1 1 0 0 0 0 0 1 1 1 1 2 2 2 2 3
8 7 6 6 7 8 8 7 7 8 6 6 8 8 7 6 5 5 5 5 5 5 5 5 5 5 5 5 5 5 5 5 5 5 4 4 4 4 5 5 4 4 4 4 4 4 4 4 4 4 5 4 4 5 3 3 3 3 2 3 3 6 4 6 4 2 2 1 1 1 1 0 0 0 0 0 0 0 0 1 1 1 2 2 2
6 6 6 6 6 6 6 7 7 5 5 5 7 8 6 5 6 6 5 5 5 5 4 5 5 5 6 6 6 5 5 5 5 5 4 4 4 4 4 4 4 4 4 4 4 4 4 4 4 4 4 4 4 4 3 2 2 1 1 1 4 6 5 7 5 5 2 1 0 1 0 1 0 0 1 1 1 0 0 0 1 2 1 1 2
6 6 5 6 6 6 6 6 7 5 4 5 5 5 5 5 5 5 5 5 6 6 5 5 6 5 5 5 5 5 5 5 5 4 4 4 4 4 4 4 4 4 4 5 5 5 4 4 4 4 3 3 3 3 2 1 1 0 1 2 3 4 3 5 3 4 3 2 1 0 0 0 0 0 1 1 2 1 2 0 0 1 0 1 1
Wind_Direction
197 208 195 205 203 203 205 200 206 205 206 205 208 211 211 210 210 213 203 207 197 201 200 203 197 194 190 196 200 203 207 216 215 215 216 222 224 228 230 222 225 231 232 232 226 224 226 232 235 235 230 232 235 234 233 231 227 231 233 239 244 239 241 249 259 271 264 204 256 246 227 239 255 231 256 258 256 253 239 243 255 260 253 249 253
202 203 198 203 203 209 206 204 203 200 204 204 209 211 212 210 209 198 201 211 192 196 199 198 190 187 190 199 206 209 208 214 212 205 215 223 230 226 229 226 227 234 226 235 230 227 225 230 236 234 225 230 233 235 235 233 230 233 234 234 240 244 229 245 256 266 276 249 238 250 215 200 245 209 234 252 259 259 263 254 239 235 248 251 250
199 197 202 205 211 213 208 207 201 200 200 202 207 209 211 207 190 191 200 199 192 190 192 186 185 184 194 206 210 214 211 211 204 199 212 219 225 227 224 222 226 228 229 232 231 226 227 230 235 230 225 227 232 234 232 233 232 233 238 230 240 243 236 234 249 261 267 269 250 255 252 209 228 240 232 240 246 248 259 260 259 263 236 245 253
196 191 194 202 207 205 207 204 197 200 202 205 206 209 202 194 179 188 192 177 180 197 172 172 166 173 188 203 211 222 232 233 225 213 216 218 224 229 226 226 227 229 231 233 230 224 227 232 235 228 224 227 232 230 231 228 231 235 237 238 235 243 238 235 237 250 263 272 265 213 259 211 237 245 241 245 245 249 249 267 275 271 271 259 255
194 206 200 203 202 200 205 197 195 198 203 202 205 197 187 176 174 179 166 171 171 151 136 135 143 156 181 197 206 209 221 225 234 243 240 233 234 238 237 236 233 235 234 234 230 225 228 229 235 226 221 228 236 233 230 227 230 231 240 239 239 241 241 235 238 239 253 263 274 252 204 237 222 229 238 248 272 272 274 261 258 262 268 262 267
192 189 194 197 203 204 206 198 200 200 200 200 196 182 170 166 167 171 164 163 151 148 150 136 148 158 158 167 167 195 211 219 219 238 257 274 276 275 275 265 261 254 251 247 242 235 236 237 237 227 225 226 233 231 229 232 230 230 235 237 237 240 243 243 239 243 248 258 266 279 250 245 281 243 231 224 246 267 275 267 268 255 258 274 261
191 187 191 196 197 205 201 201 200 199 196 191 172 162 168 168 160 166 162 152 153 147 136 133 108 133 135 132 144 157 164 149 152 144 149 150 134 43 287 296 285 289 292 293 289 274 260 257 251 241 238 237 236 234 229 231 231 238 241 242 244 244 250 252 248 248 250 256 265 269 285 258 233 274 271 231 232 228 249 283 273 234 242 246 266
191 193 186 196 202 204 206 202 197 194 179 163 163 160 147 147 148 134 127 131 140 148 152 144 126 104 117 112 118 120 136 132 128 122 142 181 171 187 184 152 319 325 329 337 346 341 318 302 290 281 278 268 257 256 258 252 245 240 235 232 238 237 241 242 243 247 253 258 258 266 259 276 287 279 345 9 297 291 231 237 270 267 242 257 242
195 192 191 198 209 207 195 190 173 155 151 149 151 151 148 138 124 119 112 111 97 104 111 121 125 105 78 88 83 88 118 154 127 131 207 188 179 188 191 185 183 244 293 317 305 300 324 340 356 27 10 341 334 319 287 256 243 249 250 232 238 235 239 237 234 233 246 256 265 261 270 273 267 278 287 264 247 257 246 204 258 272 273 282 272
187 192 199 211 212 196 185 177 170 157 152 166 169 154 145 141 133 127 120 114 105 112 106 107 125 139 146 133 142 156 201 146 132 185 213 208 212 200 185 192 192 198 228 265 285 263 246 255 276 280 322 319 331 360 358 349 341 317 305 312 277 251 245 251 250 242 246 251 254 258 264 267 273 237 252 251 252 282 294 270 268 285 293 271 282
192 190 206 211 196 179 176 190 172 180 184 162 159 159 157 149 142 140 135 123 135 139 132 134 139 149 151 171 179 205 177 108 126 178 197 229 240 226 205 213 205 201 204 221 249 278 285 275 282 293 280 324 49 51 50 61 55 54 60 125 203 275 290 274 265 278 262 266 281 266 253 272 270 235 248 285 332 320 311 316 296 308 301 304 302
194 201 208 194 184 186 193 184 185 189 168 179 170 166 152 152 159 158 143 145 150 132 140 157 151 162 167 182 199 163 119 123 138 142 145 143 76 281 269 250 228 214 209 222 234 245 282 315 321 312 46 42 129 121 110 113 105 104 102 101 124 165 195 211 232 290 274 291 298 285 305 288 325 33 359 8 347 336 327 331 313 308 305 299 291
202 205 207 192 197 197 188 188 191 182 190 175 165 158 161 161 167 167 179 170 144 154 172 159 180 187 176 187 173 145 143 122 135 121 123 128 129 194 226 215 221 230 220 223 229 223 210 198 215 70 65 25 18 354 337 312 238 176 143 135 116 104 111 145 189 199 212 228 249 267 236 248 301 220 55 264 256 272 290 298 284 283 281 282 281
203 210 205 204 202 194 188 187 189 189 175 167 165 166 170 185 179 170 154 157 167 165 163 181 184 176 186 165 148 148 143 151 128 121 123 95 59 258 219 218 229 222 197 149 101 86 73 168 95 60 35 32 22 10 359 352 343 356 48 72 80 71 59 51 42 34 358 243 219 237 71 148 233 298 296 296 300 263 271 275 263 280 270 259 277
208 212 208 209 192 186 190 191 192 183 177 175 174 180 183 173 170 175 170 174 174 177 178 175 176 178 164 147 143 144 143 134 120 109 90 82 14 214 211 215 110 93 84 82 86 78 55 74 90 91 65 50 22 22 15 355 6 44 58 56 65 63 57 45 35 19 19 28 68 138 169 317 293 280 288 312 282 251 227 232 247 253 275 288 284
211 211 212 206 198 195 189 193 191 179 178 179 182 186 184 179 176 170 162 160 156 152 166 165 170 162 152 144 139 142 141 127 139 135 168 185 136 175 147 120 123 118 100 93 82 75 74 81 94 85 72 60 23 32 29 34 65 63 63 69 88 87 73 62 60 50 31 22 13 356 323 326 7 29 27 3 329 324 309 301 321 352 327 304 290
215 210 211 205 200 195 191 189 187 183 182 181 189 186 179 179 171 163 159 166 166 172 178 171 161 149 146 149 146 149 145 158 163 161 190 208 170 192 155 131 128 121 114 107 94 81 73 75 91 100 96 68 42 47 45 68 80 77 79 74 67 60 30 1 355 23 42 55 66 67 64 63 60 50 41 33 17 340 318 337 343 354 346 314 303
217 209 210 205 197 192 191 188 186 183 180 189 191 187 176 164 169 170 169 167 173 178 164 151 150 154 151 157 159 150 165 173 113 184 204 204 190 184 169 141 135 125 118 102 102 93 76 70 81 118 120 110 83 69 93 101 109 123 119 110 71 51 18 351 358 10 32 67 66 67 59 50 46 43 38 36 29 24 70 51 316 350 332 330 308
219 212 212 200 190 191 191 187 181 178 185 192 181 177 180 177 163 155 157 159 166 158 151 147 145 147 146 148 147 139 147 136 236 189 181 177 164 169 162 146 133 138 136 129 115 100 68 48 32 65 82 69 74 76 95 119 126 139 137 116 104 76 11 326 19 23 27 46 29 32 30 26 25 34 20 30 40 36 50 62 340 45 336 318 314
220 213 200 183 188 185 182 182 182 181 189 182 179 178 158 150 163 161 159 161 157 156 149 146 146 142 135 138 130 137 139 171 188 146 159 168 159 151 157 144 150 146 139 135 115 53 42 23 349 69 104 116 112 111 109 112 111 111 107 107 118 102 178 349 41 119 87 86 61 45 38 9 14 18 18 17 19 30 36 39 16 341 294 276 294
219 193 182 179 182 185 183 185 183 187 180 174 165 155 161 163 158 159 163 160 152 149 149 146 137 139 133 128 129 128 144 133 110 136 133 145 152 146 137 141 145 138 131 119 112 115 113 244 304 222 123 128 121 114 110 106 108 101 109 122 132 172 153 108 64 89 92 78 65 50 32 22 13 12 13 12 7 359 357 3 346 310 266 273 300
193 182 178 184 185 181 183 184 177 168 156 147 154 162 161 156 158 159 162 158 155 150 147 142 140 138 128 127 132 132 100 101 81 76 122 131 141 142 126 137 138 133 131 130 119 136 161 196 262 168 129 119 114 109 109 111 107 94 115 116 107 80 59 57 67 69 65 61 55 49 36 28 17 11 7 2 357 349 346 340 337 325 256 231 230
184 182 183 180 182 181 178 172 168 162 162 164 159 160 159 156 157 162 163 157 153 151 149 148 145 141 137 133 132 122 97 70 77 61 80 127 140 149 136 124 145 144 151 157 170 164 173 186 240 259 165 148 132 115 99 75 54 78 75 62 64 65 67 63 62 58 48 38 43 38 21 19 14 4 359 352 337 338 333 327 318 318 303 265 230
169 174 181 182 174 174 170 166 159 156 157 154 156 155 151 156 160 167 167 161 156 152 152 151 148 150 150 148 145 126 95 89 57 62 55 86 129 138 142 140 147 154 157 157 157 157 156 174 209 297 110 99 105 102 89 77 80 77 69 65 62 67 73 69 61 60 58 44 38 25 12 1 4 1 348 330 323 321 315 317 321 321 313 309 298
173 179 182 177 171 163 154 158 157 154 157 156 157 157 157 157 159 168 165 163 161 158 159 160 159 158 152 156 157 147 127 88 69 41 47 42 75 98 112 126 141 146 147 146 137 136 156 193 267 130 105 98 96 82 70 72 75 71 71 69 71 73 84 96 102 97 82 71 57 33 15 355 341 327 326 331 328 338 341 336 334 331 334 336 317
178 183 173 166 161 152 148 144 142 145 145 152 157 164 163 165 164 160 166 165 163 161 160 160 159 156 157 155 158 157 138 109 79 42 31 34 43 50 65 80 93 112 127 140 142 154 198 220 165 116 99 92 82 85 84 79 78 75 69 67 67 74 93 102 99 95 99 85 71 44 357 355 352 339 347 3 11 358 349 342 342 342 351 358 7
175 167 167 156 150 152 152 154 146 142 142 137 142 153 162 169 168 169 169 165 163 163 161 160 157 158 161 161 154 151 143 129 108 56 13 38 38 38 43 37 40 60 75 80 128 174 196 179 138 125 109 101 92 92 95 82 71 60 51 49 53 54 56 70 90 91 81 78 64 51 28 358 349 23 12 17 14 358 358 351 354 342 346 339 19
173 175 165 161 159 160 153 146 143 141 142 143 145 153 166 172 174 176 176 172 164 165 166 165 167 168 163 160 152 145 150 127 122 134 120 85 42 32 51 59 47 49 72 65 78 143 129 119 108 97 95 79 72 66 59 62 67 72 57 41 34 33 42 52 57 58 57 95 105 83 39 23 48 25 19 38 32 13 8 16 17 359 359 354 12
159 153 151 146 146 143 143 145 144 138 131 119 104 116 151 159 154 126 5 190 176 167 166 167 171 164 157 161 158 157 154 177 212 198 180 177 151 122 54 48 48 47 192 141 93 86 109 113 121 114 117 119 97 76 57 60 50 50 55 38 26 29 29 30 39 26 4 93 91 91 74 42 39 29 31 46 36 25 17 20 18 20 2 26 36
153 158 156 152 146 144 140 141 138 136 133 127 120 95 81 91 103 115 123 110 107 93 119 154 152 137 124 106 144 155 177 190 181 145 115 98 112 129 156 143 127 151 251 216 155 128 144 154 162 148 135 122 116 102 83 73 68 61 51 51 33 28 31 21 7 345 351 50 67 65 54 44 39 27 34 39 26 30 23 35 18 19 36 24 26
159 155 155 159 159 150 146 142 143 136 135 134 123 124 112 83 82 87 94 96 102 108 110 115 123 132 134 127 130 126 133 132 123 105 95 83 86 92 67 31 3 331 280 136 119 154 152 167 170 119 113 100 107 103 88 85 79 90 83 70 46 43 37 24 0 353 18 36 55 49 32 38 39 32 41 25 35 28 32 29 37 35 39 26 28
166 167 162 155 151 148 143 142 141 139 140 140 137 133 122 121 98 73 76 81 92 100 106 110 114 116 119 123 125 113 112 108 103 96 87 85 75 111 102 54 33 1 288 166 149 161 137 151 135 116 108 109 97 96 100 114 91 77 70 82 68 53 46 24 1 14 44 44 55 47 30 29 34 34 33 29 47 50 44 38 38 48 45 37 42
158 155 152 150 148 145 145 148 149 147 149 148 148 144 140 137 127 122 84 82 86 92 99 105 109 111 113 112 113 117 119 116 102 96 90 100 99 111 95 68 52 38 105 127 159 137 119 133 143 132 133 137 135 133 127 112 115 101 87 80 69 55 47 349 19 57 54 64 68 61 38 36 39 33 37 35 43 50 47 43 34 47 57 59 48
158 158 159 156 153 154 154 153 152 152 153 152 151 149 146 140 134 126 127 124 96 84 87 101 110 113 113 115 117 117 117 107 96 88 77 85 108 158 114 85 65 47 93 153 147 158 143 139 145 149 151 140 135 124 122 123 120 123 110 96 88 78 52 46 65 67 68 62 61 58 48 39 39 46 46 43 41 47 47 35 35 46 49 50 48
139 141 145 147 150 151 150 149 147 146 148 148 146 145 140 143 139 138 143 137 134 132 129 113 114 120 121 119 120 119 117 107 91 79 63 58 25 162 116 79 49 15 36 70 129 146 155 152 150 147 143 143 141 139 140 141 128 122 119 117 110 94 73 73 78 74 71 70 63 51 47 45 41 54 56 52 46 47 41 34 36 44 45 46 30
142 144 147 146 145 149 149 150 150 151 151 147 143 137 139 140 138 136 122 122 125 121 111 112 109 126 123 123 126 123 117 106 84 69 54 46 29 138 115 120 99 91 90 87 116 122 119 128 127 134 131 135 139 143 146 132 130 124 131 127 115 101 88 84 84 81 75 69 64 57 53 46 37 46 52 61 54 49 37 30 30 39 41 44 26
147 148 150 151 149 145 143 142 144 144 139 136 135 137 140 134 132 128 129 132 131 129 128 127 111 87 80 80 128 126 117 103 82 67 54 49 50 79 117 144 146 129 134 137 125 119 117 115 119 131 139 142 154 155 139 132 140 126 118 111 112 100 99 100 92 86 82 72 64 59 61 53 44 41 61 67 51 42 39 34 29 40 43 43 39
149 152 152 149 143 140 140 143 142 139 140 141 143 143 138 138 139 137 137 138 142 135 132 145 144 146 151 148 116 120 109 92 78 51 34 33 34 60 92 112 128 142 149 136 122 125 125 120 134 142 147 143 149 150 132 138 136 120 118 114 99 100 93 90 87 75 76 73 66 52 52 46 43 36 46 66 57 41 31 34 40 34 30 38 33
126 132 139 143 143 144 143 140 141 143 144 146 148 144 143 142 138 135 132 111 119 138 146 149 150 155 150 138 127 126 109 76 76 82 55 48 48 60 92 106 112 114 121 129 132 128 133 135 140 132 139 137 139 142 135 138 127 117 115 108 98 87 85 81 82 75 72 68 59 56 55 51 40 34 46 56 46 38 32 31 31 35 43 36 25
129 129 134 131 127 132 138 140 141 141 145 144 144 143 140 145 148 148 144 134 133 146 153 155 158 165 153 141 140 136 132 127 120 136 126 93 85 67 90 120 125 138 143 140 140 138 130 137 138 130 131 130 126 127 126 122 117 119 112 105 105 98 93 90 85 81 77 72 67 60 61 56 44 38 42 47 46 34 33 30 29 28 38 47 10
130 127 126 123 125 125 123 131 139 143 147 144 143 145 148 146 144 144 147 151 153 151 147 150 144 142 142 149 156 154 146 149 140 134 135 131 129 115 111 122 137 134 140 139 140 134 134 131 129 124 120 118 117 115 115 113 115 112 108 105 102 102 96 82 76 71 69 69 69 62 53 56 49 52 52 32 31 29 7 37 24 21 11 10 353
124 125 123 123 125 126 130 130 129 127 129 131 137 141 140 141 142 145 145 145 140 137 134 135 130 126 140 137 133 127 115 126 127 124 119 117 117 113 112 110 113 129 137 144 142 135 131 123 118 117 114 114 114 113 110 104 110 109 107 103 100 99 93 82 73 67 66 70 66 64 45 48 53 33 33 50 12 360 7 10 1 349 336 349 335
127 124 121 123 123 132 138 138 136 133 131 132 132 122 126 130 135 132 122 125 128 132 131 126 127 119 122 132 118 114 108 124 127 129 129 126 121 115 113 111 111 114 118 121 117 120 116 116 113 107 107 102 103 104 107 119 113 105 103 101 97 93 90 79 63 57 55 61 58 51 49 41 38 24 10 30 18 9 357 357 345 343 337 342 335
116 117 120 122 120 115 117 131 134 129 125 121 118 122 126 125 120 117 109 115 123 128 126 128 126 123 122 122 112 112 122 127 132 135 137 134 132 129 127 124 117 105 92 87 89 102 109 113 115 110 103 96 89 87 88 87 98 107 111 110 108 103 96 90 92 91 93 78 75 59 34 43 35 29 25 28 27 22 354 360 353 344 348 346 350
111 115 106 95 97 105 107 98 100 107 115 105 91 90 115 107 112 99 104 115 113 113 125 126 125 130 131 132 130 130 134 132 132 132 131 131 127 128 127 126 119 113 106 98 98 101 108 115 115 109 99 83 75 75 74 73 82 100 112 112 110 112 126 127 135 135 117 101 91 76 61 66 31 32 48 29 6 37 21 5 353 3 8 350 2
102 101 112 110 105 113 100 96 114 91 90 90 109 92 89 84 88 97 104 102 108 114 113 119 123 123 128 127 125 122 127 125 125 122 120 120 124 127 128 127 123 122 121 125 117 108 114 114 115 110 108 101 93 80 70 69 72 82 89 100 120 139 156 161 137 100 108 114 118 117 91 66 1 39 60 53 348 32 36 347 5 1 349 335 331
69 70 94 87 84 108 102 106 75 96 93 92 82 96 98 95 88 88 85 90 102 105 106 111 114 118 121 125 114 111 120 111 127 126 128 128 124 125 124 120 116 113 113 111 114 116 116 113 117 117 112 110 97 86 75 70 69 69 74 77 78 107 140 134 125 123 126 129 129 106 104 125 36 352 15 35 9 14 15 340 1 342 325 345 355
62 64 71 88 70 93 78 71 99 110 85 86 78 86 85 93 94 95 99 103 104 103 96 95 100 108 116 98 102 106 103 94 109 117 119 120 124 122 123 121 119 120 111 101 98 101 102 106 107 102 94 90 89 83 73 70 63 62 52 46 49 55 124 131 117 126 124 103 100 105 105 91 345 240 278 79 4 14 18 336 344 332 8 11 356
73 78 88 106 105 87 81 110 102 89 98 105 111 109 106 100 91 88 100 98 105 109 114 117 116 98 112 117 117 117 114 112 119 119 115 117 118 121 120 124 124 121 113 108 100 93 92 88 87 89 86 82 80 79 68 66 59 46 35 14 16 34 62 135 120 142 125 109 60 77 72 103 58 232 210 200 282 8 333 312 347 29 17 3 5
82 84 95 90 97 97 74 59 68 85 88 92 113 121 109 101 112 115 106 103 104 103 105 103 105 107 122 123 122 125 126 129 126 125 124 123 122 124 119 115 113 110 111 110 101 95 88 86 82 80 79 79 74 75 74 76 51 48 1 327 21 32 57 120 117 125 107 119 83 54 69 2 322 214 217 204 226 306 313 35 43 29 20 27 11
78 79 81 86 98 103 103 114 116 88 86 94 93 103 104 104 108 111 112 112 115 117 112 111 114 112 105 108 114 120 121 120 118 120 123 124 123 115 114 109 106 99 93 88 84 75 75 72 72 71 68 69 63 60 57 39 348 277 316 17 33 0 83 125 122 113 98 77 62 59 32 322 338 294 242 225 212 229 237 127 55 101 350 28 325